When you browse on this site, cookies collect data to enhance your experience and personalize the content and advertising you see.
Visit our Privacy Policy to learn more. By continuing to use the site, you agree to this use of cookies and data.
  • In Netherlands
  • List of Countries
  • For 7 days
  • Water Temperature
  • Satellite Maps
  • Weather Map
  • Weather Widgets
  • user-avatar
    Login

    Hourly Weather Banfora

    Today, 15 July, Monday

    Time Temperature Precipitation Wind Pressure Humidity
    00:00 +26°C° 0 mm 2 mps 734 mmHg 86%
    01:00 +26°C° 0 mm 1 mps 734 mmHg 87%
    02:00 +25°C° 0 mm 1 mps 733 mmHg 88%
    03:00 +25°C° 0 mm 1 mps 733 mmHg 89%
    04:00 +25°C° 0 mm 1 mps 733 mmHg 89%
    05:00 +24°C° 0 mm 1 mps 733 mmHg 90%
    06:00 +24°C° 0 mm 1 mps 733 mmHg 90%
    07:00 +26°C° 0 mm 2 mps 734 mmHg 83%
    08:00 +27°C° 0 mm 2 mps 734 mmHg 77%
    09:00 +29°C° 0 mm 2 mps 734 mmHg 70%
    10:00 +31°C° 0 mm 2 mps 734 mmHg 64%
    11:00 +32°C° 0 mm 2 mps 733 mmHg 57%
    12:00 +35°C° 0 mm 2 mps 733 mmHg 49%
    13:00 +35°C° 0 mm 1 mps 732 mmHg 46%
    14:00 +36°C° 0 mm 1 mps 732 mmHg 44%
    15:00 +36°C° 0 mm 1 mps 731 mmHg 42%
    16:00 +35°C° 0 mm 1 mps 731 mmHg 45%
    17:00 +34°C° 0 mm 1 mps 731 mmHg 48%
    18:00 +33°C° 0 mm 1 mps 731 mmHg 51%
    19:00 +32°C° 0 mm 1 mps 731 mmHg 54%
    20:00 +31°C° 0 mm 1 mps 732 mmHg 57%
    21:00 +29°C° 0 mm 2 mps 732 mmHg 60%
    22:00 +28°C° 0.8 mm 2 mps 733 mmHg 69%
    23:00 +27°C° 0.8 mm 3 mps 733 mmHg 78%

    Tomorrow, 16 July, Tuesday

    Time Temperature Precipitation Wind Pressure Humidity
    00:00 +25°C° 0.8 mm 4 mps 733 mmHg 86%
    01:00 +25°C° 0.3 mm 3 mps 733 mmHg 87%
    02:00 +25°C° 0.3 mm 2 mps 732 mmHg 89%
    03:00 +25°C° 0.3 mm 1 mps 732 mmHg 90%
    04:00 +25°C° 0 mm 1 mps 732 mmHg 90%
    05:00 +25°C° 0 mm 1 mps 732 mmHg 91%
    06:00 +25°C° 0 mm 1 mps 732 mmHg 92%
    07:00 +26°C° 0 mm 2 mps 733 mmHg 86%
    08:00 +27°C° 0 mm 2 mps 733 mmHg 81%
    09:00 +28°C° 0 mm 3 mps 734 mmHg 76%
    10:00 +29°C° 0 mm 3 mps 734 mmHg 70%
    11:00 +31°C° 0 mm 3 mps 734 mmHg 65%
    12:00 +33°C° 0 mm 3 mps 734 mmHg 59%
    13:00 +31°C° 0.8 mm 3 mps 733 mmHg 63%
    14:00 +32°C° 0.8 mm 4 mps 733 mmHg 67%
    15:00 +30°C° 0.8 mm 4 mps 732 mmHg 70%
    16:00 +29°C° 1.6 mm 3 mps 732 mmHg 75%
    17:00 +28°C° 1.6 mm 3 mps 733 mmHg 80%
    18:00 +27°C° 1.6 mm 2 mps 733 mmHg 84%
    19:00 +27°C° 0 mm 2 mps 733 mmHg 86%
    20:00 +26°C° 0 mm 1 mps 734 mmHg 88%
    21:00 +26°C° 0 mm 1 mps 734 mmHg 90%
    22:00 +25°C° 0 mm 1 mps 734 mmHg 91%
    23:00 +25°C° 0 mm 1 mps 734 mmHg 91%

    Day after tomorrow, 17 July, Wednesday

    Time Temperature Precipitation Wind Pressure Humidity
    00:00 +25°C° 0 mm 1 mps 734 mmHg 92%
    01:00 +25°C° 0 mm 1 mps 734 mmHg 93%
    02:00 +24°C° 0 mm 1 mps 734 mmHg 94%
    03:00 +24°C° 0 mm 2 mps 734 mmHg 96%
    04:00 +24°C° 0 mm 2 mps 734 mmHg 95%
    05:00 +24°C° 0 mm 2 mps 734 mmHg 95%
    06:00 +24°C° 0 mm 2 mps 735 mmHg 94%
    07:00 +25°C° 0 mm 2 mps 735 mmHg 89%
    08:00 +26°C° 0 mm 2 mps 736 mmHg 83%
    09:00 +27°C° 0 mm 3 mps 736 mmHg 77%
    10:00 +29°C° 0 mm 3 mps 736 mmHg 70%
    11:00 +31°C° 0 mm 3 mps 736 mmHg 63%
    12:00 +33°C° 0 mm 3 mps 736 mmHg 56%
    13:00 +32°C° 0.4 mm 2 mps 735 mmHg 56%
    14:00 +34°C° 0.4 mm 2 mps 734 mmHg 56%
    15:00 +34°C° 0.4 mm 2 mps 733 mmHg 56%
    16:00 +32°C° 0 mm 2 mps 733 mmHg 58%
    17:00 +31°C° 0 mm 2 mps 733 mmHg 61%
    18:00 +31°C° 0 mm 1 mps 733 mmHg 65%
    19:00 +30°C° 0 mm 1 mps 733 mmHg 68%
    20:00 +28°C° 0 mm 2 mps 733 mmHg 72%
    21:00 +27°C° 0 mm 2 mps 734 mmHg 76%
    22:00 +27°C° 0 mm 2 mps 734 mmHg 78%
    23:00 +26°C° 0 mm 2 mps 734 mmHg 79%

    18 July, Thursday

    Time Temperature Precipitation Wind Pressure Humidity
    00:00 +26°C° 0 mm 2 mps 734 mmHg 81%
    01:00 +26°C° 0 mm 2 mps 733 mmHg 84%
    02:00 +26°C° 0 mm 2 mps 733 mmHg 87%
    03:00 +25°C° 0 mm 2 mps 733 mmHg 90%
    04:00 +25°C° 0.1 mm 2 mps 733 mmHg 90%
    05:00 +25°C° 0.1 mm 2 mps 733 mmHg 91%
    06:00 +25°C° 0.1 mm 2 mps 733 mmHg 92%
    07:00 +26°C° 0 mm 2 mps 734 mmHg 86%
    08:00 +27°C° 0 mm 3 mps 734 mmHg 80%
    09:00 +29°C° 0 mm 3 mps 735 mmHg 74%
    10:00 +30°C° 0.1 mm 3 mps 735 mmHg 68%
    11:00 +32°C° 0.1 mm 2 mps 734 mmHg 61%
    12:00 +35°C° 0.1 mm 2 mps 734 mmHg 55%
    13:00 +32°C° 2.5 mm 1 mps 733 mmHg 63%
    14:00 +30°C° 2.5 mm 1 mps 733 mmHg 72%
    15:00 +27°C° 2.5 mm 1 mps 732 mmHg 81%
    16:00 +28°C° 0 mm 1 mps 732 mmHg 80%
    17:00 +28°C° 0 mm 1 mps 732 mmHg 80%
    18:00 +29°C° 0 mm 1 mps 732 mmHg 79%
    19:00 +28°C° 0 mm 1 mps 732 mmHg 82%
    20:00 +27°C° 0 mm 1 mps 733 mmHg 84%
    21:00 +27°C° 0 mm 1 mps 733 mmHg 86%
    22:00 +26°C° 0 mm 1 mps 733 mmHg 87%
    23:00 +26°C° 0 mm 2 mps 733 mmHg 88%

    19 July, Friday

    Time Temperature Precipitation Wind Pressure Humidity
    00:00 +26°C° 0 mm 2 mps 733 mmHg 89%
    01:00 +25°C° 0.2 mm 2 mps 733 mmHg 90%
    02:00 +25°C° 0.2 mm 2 mps 733 mmHg 90%
    03:00 +25°C° 0.2 mm 2 mps 733 mmHg 90%
    04:00 +24°C° 0.2 mm 2 mps 733 mmHg 90%
    05:00 +24°C° 0.2 mm 2 mps 733 mmHg 91%
    06:00 +24°C° 0.2 mm 2 mps 734 mmHg 91%
    07:00 +25°C° 0.1 mm 1 mps 734 mmHg 88%
    08:00 +26°C° 0.1 mm 1 mps 735 mmHg 84%
    09:00 +27°C° 0.1 mm 1 mps 735 mmHg 81%
    10:00 +28°C° 0 mm 2 mps 735 mmHg 77%
    11:00 +29°C° 0 mm 2 mps 734 mmHg 72%
    12:00 +30°C° 0 mm 3 mps 734 mmHg 68%
    13:00 +31°C° 0.3 mm 2 mps 733 mmHg 64%
    14:00 +32°C° 0.3 mm 2 mps 733 mmHg 60%
    15:00 +34°C° 0.3 mm 2 mps 732 mmHg 56%
    16:00 +32°C° 0.7 mm 2 mps 732 mmHg 61%
    17:00 +31°C° 0.7 mm 2 mps 732 mmHg 65%
    18:00 +30°C° 0.7 mm 1 mps 732 mmHg 70%
    19:00 +29°C° 3.2 mm 2 mps 732 mmHg 77%
    20:00 +27°C° 3.2 mm 2 mps 733 mmHg 85%
    21:00 +26°C° 3.2 mm 3 mps 733 mmHg 92%
    22:00 +25°C° 0.3 mm 3 mps 734 mmHg 93%
    23:00 +25°C° 0.3 mm 2 mps 734 mmHg 93%

    20 July, Saturday

    Time Temperature Precipitation Wind Pressure Humidity
    00:00 +25°C° 0.3 mm 2 mps 734 mmHg 94%
    01:00 +25°C° 0.1 mm 2 mps 734 mmHg 94%
    02:00 +25°C° 0.1 mm 2 mps 734 mmHg 94%
    03:00 +25°C° 0.1 mm 2 mps 733 mmHg 95%
    04:00 +25°C° 0.1 mm 1 mps 733 mmHg 95%
    05:00 +24°C° 0.1 mm 1 mps 733 mmHg 96%
    06:00 +24°C° 0.1 mm 1 mps 733 mmHg 97%
    07:00 +25°C° 0 mm 2 mps 734 mmHg 92%
    08:00 +26°C° 0 mm 2 mps 735 mmHg 87%
    09:00 +27°C° 0 mm 3 mps 735 mmHg 82%
    10:00 +28°C° 0 mm 2 mps 735 mmHg 76%
    11:00 +29°C° 0 mm 2 mps 735 mmHg 70%
    12:00 +31°C° 0 mm 1 mps 735 mmHg 65%
    13:00 +31°C° 0.8 mm 1 mps 735 mmHg 66%
    14:00 +31°C° 0.8 mm 1 mps 734 mmHg 67%
    15:00 +31°C° 0.8 mm 1 mps 733 mmHg 68%
    16:00 +29°C° 2.6 mm 1 mps 733 mmHg 76%
    17:00 +27°C° 2.6 mm 2 mps 733 mmHg 84%
    18:00 +26°C° 2.6 mm 2 mps 733 mmHg 92%
    19:00 +25°C° 0 mm 2 mps 733 mmHg 92%
    20:00 +25°C° 0 mm 1 mps 733 mmHg 93%
    21:00 +25°C° 0 mm 1 mps 734 mmHg 93%
    22:00 +25°C° 0 mm 1 mps 734 mmHg 92%
    23:00 +23°C° 0 mm 0 mps 734 mmHg 92%
    Show more